Regional Weather Roundup
Issued by NWS

Home | Current Version | Previous Version | Text Only | Print | Product List | Glossary Off
Versions: 1 2 3 4 5 6 7 8 9 10 11 12 13 14 15 16 17 18 19 20 21 22 23 24 25 26 27 28 29 30 31 32 33 34 35 36 37 38 39 40 41 42 43 44 45 46 47 48 49 50

000
ASUS45 KBOU 281407
RWRCO

WEATHER ROUNDUP FOR COLORADO
NATIONAL WEATHER SERVICE DENVER/BOULDER CO
700 AM MST SAT FEB 28 2015

NOTE: "FAIR" INDICATES FEW OR NO CLOUDS BELOW 12000 FEET WITH NO
SIGNIFICANT WEATHER AND/OR OBSTRUCTIONS TO VISIBILITY.

COZ001>005-013-030-031-281500-
...NORTHWEST COLORADO...

CITY           SKY/WX    TMP DP  RH WIND       PRES   REMARKS
CRAIG            N/A     19  10  68 E6        29.80R WCI  11
HAYDEN         PTCLDY    10   3  72 E12       29.79R WCI  -4
MEEKER         CLEAR     13   6  74 NE3       29.79R
MOUNT WERNER   NOT AVBL
STEAMBOAT SPGS PTCLDY     4   0  84 CALM      29.80S
WALDEN         PTCLDY    -6 -11  77 CALM      29.78S
$$

COZ006>008-011-281500-
...WEST CENTRAL VALLEYS...

CITY           SKY/WX    TMP DP  RH WIND       PRES   REMARKS
GRAND JUNCTION MOCLDY    24  19  81 SE9       29.77F WCI  14
MONTROSE       CLOUDY    18  13  80 S3        29.81R
EAGLE          CLOUDY    18  12  79 E7        29.86R WCI   8
RIFLE          CLEAR     19  13  77 S6        29.81F WCI  11
DELTA          CLOUDY    26  21  83 NE3       29.80S
NUCLA          CLOUDY    23  19  86 E3        29.78F
$$

COZ017>023-064>068-281500-
...SOUTHWEST COLORADO...

CITY           SKY/WX    TMP DP  RH WIND       PRES   REMARKS
DURANGO        LGT SNOW  25  23  92 SE6       29.79R VSB 3/4 WCI  18
CORTEZ         LGT SNOW  30  29  96 E3        29.76S VSB 3/4
PAGOSA SPRINGS LGT SNOW  24  24  99 CALM      29.80R VSB 1
TELLURIDE      CLOUDY    21  12  67 CALM      29.73R
WOLF CREEK PAS LGT SNOW  10   9  92 SW8       29.76R WCI  -1
$$

COZ009-010-012-014-032>034-037-058>063-281500-
...CENTRAL COLORADO...

CITY           SKY/WX    TMP DP  RH WIND       PRES   REMARKS
ASPEN          PTCLDY     3  -2  79 S5        29.77R WCI  -6
BUENA VISTA    MOCLDY     6   1  79 CALM      29.83R
COPPER MTN     MOCLDY     9  -4  56 MISG      29.71R
BERTHOUD PASS  FAIR       1  -6  71 W8        29.70R WCI -12
COTTONWOOD PAS MOCLDY    14   9  79 CALM      29.75R
GUNNISON       CLOUDY    10   7  85 CALM      29.82F
KREMMLING      CLOUDY    10   3  72 CALM      29.84R
LEADVILLE      MOCLDY    -4  -9  79 CALM      29.76R
SALIDA         MOCLDY    13   8  80 W5        29.90S WCI   5
SUNLIGHT       PTCLDY   N/A N/A N/A CALM        N/A
WILKERSON PASS MOCLDY     9   5  85 W6        29.74R WCI  -1
$$

COZ069>075-281500-
...SAN LUIS VALLEY/SANGRE DE CRISTO MOUNTAINS...

CITY           SKY/WX    TMP DP  RH WIND       PRES   REMARKS
ALAMOSA        CLOUDY    17  13  84 CALM      29.82R
LA VETA PASS   LGT SNOW  14  10  85 MISG      29.75R
SAGUACHE       CLOUDY    21  18  86 CALM      29.82R
$$

COZ035-036-038>040-281500-
...NORTHERN COLORADO FRONT RANGE...

CITY           SKY/WX    TMP DP  RH WIND       PRES   REMARKS
DENVER INTL AP FOG        3   1  91 W7        29.92R VSB 1/8 WCI  -9
DMNS CITY PARK   N/A      8   5  88 N2        29.93R
AURORA         PTCLDY     2   0  88 NW5       29.90R WCI  -7
FRONT RANGE AP NOT AVBL
ERIE MUNI ARPT LGT SNOW   1  -2  88 CALM      29.95R
BOULDER MUN AP PTCLDY     5   3  92 S5        29.93S FOG     WCI  -4
CENTENNIAL     PTCLDY    -1  -4  87 CALM      29.88R FOG
BROOMFIELD     LGT SNOW   7   3  85 NW9       29.90R VSB 1   WCI  -7
FORT COLLINS   PTCLDY     7   1  78 CALM      29.94F
LONGMONT       PTCLDY     0  -4  82 CALM      29.96S
$$

COZ041-046-047-076>085-087-088-281500-
...PIKES PEAK/PALMER DIVIDE AND SOUTHERN FOOTHILLS...

CITY           SKY/WX    TMP DP  RH WIND       PRES   REMARKS
COLO. SPRINGS  PTCLDY     0  -5  79 N5        29.86R FOG     WCI -10
A. F. ACADEMY  PTCLDY    -3  -8  80 N7        29.83R WCI -17
ELLICOTT       NOT AVBL
FALCON         PTCLDY     1  -3  83 CALM      29.82R
FORT CARSON    PTCLDY    -2  -6  83 NW3       29.87R
LIMON          CLOUDY     5   4  95 S6        29.90F FOG     WCI  -6
MONUMENT HILL  PTCLDY     5   3  92 NW5       29.81R WCI  -4
TRINIDAD       MOCLDY     8   4  83 NW7       29.88R WCI  -3
$$

COZ042>045-048>051-090-091-281500-
...NORTHEAST COLORADO...

CITY           SKY/WX    TMP DP  RH WIND       PRES   REMARKS
GREELEY ARPT   PTCLDY     3  -6  66 CALM      29.96S
AKRON          CLEAR      3   1  91 SE6       29.97R WCI  -8
BURLINGTON     CLOUDY     7   4  87 SE12      30.02R FOG     WCI  -8
WRAY           FLURRIES  13   8  83 SE9       30.08R WCI   0
STERLING       CLEAR      3   0  85 N6        30.02S WCI  -8
HOLYOKE        NOT AVBL
FORT MORGAN    CLEAR      5   0  81 N5        29.98S WCI  -4
$$

COZ086-089-092>099-281500-
...SOUTHEAST COLORADO...

CITY           SKY/WX    TMP DP  RH WIND       PRES   REMARKS
PUEBLO         MOCLDY     1  -3  83 W3        29.96R
LA JUNTA       MOCLDY     6   2  83 W7        29.98F WCI  -6
LAMAR          PTCLDY    13   8  81 S5        30.02R WCI   5
SPRINGFIELD      N/A     11   8  88 S20       29.99R WCI  -7
$$



USA.gov is the U.S. government's official web portal to all federal, state and local government web resources and services.